{"data":{"norad_id":53251,"intl_designator":"2022-086K","name":"STARLINK-4129","alt_names":[],"object_type":"PAYLOAD","status":"ACTIVE","operator":null,"country":"US","launch_date":"2022-07-24","launch_site_code":"AFETR","launch_vehicle":null,"mission":null,"orbit_class":"UNKNOWN","rcs_meters":null,"size_class":null,"mass_kg":null,"dimensions":null,"purposes":["comms"],"wikipedia_slug":null,"has_3d_model":false,"image_url":null,"decayed_at":null,"tle_current":{"epoch":"2026-09-19T23:18:15.314112Z","epoch_age_seconds":121159,"freshness":"FRESH","line1":"1 53251U 22086K   26262.97101058  .00000610  00000+0  29189-4 0  9992","line2":"2 53251  53.1618  27.8484 0001081  46.2825 313.8266 15.34392782230583","mean_motion":15.34392782,"eccentricity":0.0001081,"inclination_deg":53.1618,"raan_deg":27.8484,"arg_perigee_deg":46.2825,"mean_anomaly_deg":313.8266,"bstar":2.9189e-5,"rev_number":23058,"period_min":93.848199554422,"perigee_km":461.98519655924,"apogee_km":463.46419085742,"semimajor_km":6840.8616937083,"source":"CELESTRAK","updated_at":"2026-09-20T09:00:40.214170Z"}}}